Stations météo

réclame
Mon MeteoGroup
Woensdrecht, Pays-Bas (6340): Température de l'air & dewpoint: 16.10.2018 17:00:00 - 22.10.2018 17:00:00 (CEST)Woensdrecht, Pays-Bas (6340): Température de l'air 5cm: 16.10.2018 17:00:00 - 22.10.2018 17:00:00 (CEST)Woensdrecht, Pays-Bas (6340): Vitesse du vent & gusts: 16.10.2018 17:00:00 - 22.10.2018 17:00:00 (CEST)Woensdrecht, Pays-Bas (6340): Direction du vent: 16.10.2018 17:00:00 - 22.10.2018 17:00:00 (CEST)Woensdrecht, Pays-Bas (6340): reduced air pressure: 16.10.2018 17:00:00 - 22.10.2018 17:00:00 (CEST)Woensdrecht, Pays-Bas (6340): visibility: 16.10.2018 17:00:00 - 22.10.2018 17:00:00 (CEST)Woensdrecht, Pays-Bas (6340): Quantités de précipitations: 16.10.2018 17:00:00 - 22.10.2018 17:00:00 (CEST)
Date & Time tt [°C] td [°C] tt 5cm [°C] ff [km/h] ff [knt] fx [km/h] fx [knt] dd ppp [hPa] vv [km] rr [mm]
22.10.2018 17:00:00 14,2 6,5 14,5 15 8 25 14 N 1034,0 10 -
22.10.2018 16:00:00 15,0 6,6 15,3 9 5 25 14 - 1033,4 10 0,0
22.10.2018 15:00:00 14,7 6,9 14,2 13 7 29 16 - 1033,6 10 0,0
22.10.2018 14:00:00 14,7 6,8 15,1 15 8 36 19 N 1033,3 10 0,0
22.10.2018 13:00:00 13,8 7,7 14,0 15 8 29 16 N 1033,5 10 0,0
22.10.2018 12:00:00 13,7 7,9 14,0 18 10 32 18 NNE 1033,3 10 0,0
22.10.2018 11:00:00 13,9 11,0 13,2 9 5 18 10 NNE 1033,0 10 0,0
22.10.2018 10:00:00 12,5 11,6 12,5 8 4 18 10 NNE 1032,2 10 0,0
22.10.2018 09:00:00 12,0 11,3 11,9 11 6 32 18 N 1031,1 10 0,5
22.10.2018 08:00:00 12,4 12,1 12,5 11 6 36 19 N 1030,0 3,2 0,8
22.10.2018 07:00:00 12,9 12,4 12,8 11 6 22 12 N 1029,2 10 0,0
22.10.2018 06:00:00 13,2 12,5 13,1 13 7 25 14 N 1028,6 10 0,0
22.10.2018 05:00:00 13,6 13,2 13,5 15 8 25 14 N 1028,0 5 0,2
22.10.2018 04:00:00 13,1 13,1 12,7 4 2 7 4 - 1027,6 1,4 0,1
22.10.2018 03:00:00 12,3 11,5 12,0 4 2 7 4 WSW 1027,4 3,0 0,0
22.10.2018 02:00:00 11,4 10,0 10,3 4 2 7 4 WSW 1027,3 7 0,0
22.10.2018 01:00:00 10,4 9,5 9,8 2 1 4 2 - 1027,3 9 0,0
22.10.2018 00:00:00 10,0 9,4 8,6 0 0 4 2 N 1027,2 10 0,0
21.10.2018 23:00:00 10,4 9,4 9,8 0 0 4 2 N 1026,9 10 0,0
21.10.2018 22:00:00 8,9 8,4 7,6 2 1 4 2 NNW 1026,9 10 0,0
21.10.2018 21:00:00 8,6 8,2 6,0 2 1 4 2 NNW 1026,6 10 0,0
21.10.2018 20:00:00 10,5 9,1 8,8 2 1 7 4 - 1026,6 10 0,0
21.10.2018 19:00:00 14,3 9,2 13,4 5 3 7 4 SSE 1026,3 10 0,0
21.10.2018 18:00:00 14,7 10,4 14,7 4 2 11 6 S 1026,6 10 0,0
21.10.2018 17:00:00 17,0 8,8 17,8 5 3 11 6 SW 1026,9 10 0,0
21.10.2018 16:00:00 16,6 8,2 17,5 5 3 11 6 S 1027,3 10 0,0
21.10.2018 15:00:00 15,9 8,2 17,0 5 3 11 6 - 1027,7 10 0,0
21.10.2018 14:00:00 15,8 8,0 17,3 5 3 14 8 SSW 1028,1 10 0,0
21.10.2018 13:00:00 14,6 7,5 15,9 8 4 14 8 S 1028,9 10 0,0
21.10.2018 12:00:00 13,8 7,7 14,8 4 2 11 6 - 1029,3 10 0,0
21.10.2018 11:00:00 12,6 8,0 13,3 5 3 11 6 S 1029,4 8 0,0
21.10.2018 10:00:00 10,7 8,2 10,6 5 3 11 6 S 1029,4 9 0,0
21.10.2018 09:00:00 8,0 7,5 7,7 2 1 11 6 SE 1029,3 8 0,0
21.10.2018 08:00:00 6,9 6,5 5,8 2 1 4 2 - 1029,2 5 0,0
21.10.2018 07:00:00 7,5 7,2 7,3 2 1 7 4 - 1029,2 8 0,0
21.10.2018 06:00:00 7,6 6,6 6,7 2 1 11 6 S 1029,2 7 0,0
21.10.2018 05:00:00 3,7 3,4 1,8 4 2 7 4 ESE 1029,8 4,0 0,0
21.10.2018 04:00:00 4,2 4,2 1,5 2 1 4 2 ENE 1030,1 4,4 0,0
21.10.2018 03:00:00 3,6 3,4 1,7 2 1 7 4 ENE 1030,3 7 0,0
21.10.2018 02:00:00 3,7 3,3 1,5 2 1 4 2 - 1030,6 10 0,0
21.10.2018 01:00:00 4,1 4,0 1,7 2 1 4 2 ENE 1031,2 10 0,0
21.10.2018 00:00:00 4,3 4,3 1,6 2 1 4 2 ENE 1031,1 10 0,0
20.10.2018 23:00:00 5,2 5,1 2,4 2 1 4 2 ENE 1031,3 10 0,0
20.10.2018 22:00:00 5,2 5,2 2,4 2 1 4 2 - 1031,5 10 0,0
20.10.2018 21:00:00 5,9 5,2 2,8 2 1 4 2 NW 1031,4 10 0,0
20.10.2018 20:00:00 7,0 6,8 4,0 2 1 4 2 - 1031,5 10 0,0
20.10.2018 19:00:00 8,9 7,7 6,6 2 1 7 4 NW 1031,3 10 0,0
20.10.2018 18:00:00 13,7 8,0 13,3 5 3 11 6 NW 1030,9 10 0,0
20.10.2018 17:00:00 15,1 7,6 14,9 5 3 11 6 W 1030,9 10 0,0
20.10.2018 16:00:00 15,6 7,4 16,9 2 1 7 4 - 1031,1 10 0,0
20.10.2018 15:00:00 14,8 6,9 15,5 8 4 11 6 W 1031,4 10 0,0
20.10.2018 14:00:00 15,0 7,3 16,3 2 1 11 6 - 1031,8 10 0,0
20.10.2018 13:00:00 14,7 7,5 15,3 4 2 7 4 - 1032,3 10 0,0
20.10.2018 12:00:00 13,2 7,5 14,1 4 2 7 4 - 1031,9 10 0,0
20.10.2018 11:00:00 11,9 8,9 11,2 2 1 4 2 - 1032,0 10 0,0
20.10.2018 10:00:00 6,8 6,4 6,3 2 1 4 2 - 1031,8 6 0,0
20.10.2018 09:00:00 4,6 4,4 2,5 2 1 4 2 - 1031,1 7 0,0
20.10.2018 08:00:00 3,4 3,1 1,4 2 1 4 2 ENE 1030,5 7 0,0
20.10.2018 07:00:00 3,3 3,3 1,1 2 1 4 2 - 1030,2 7 0,0
20.10.2018 06:00:00 3,8 3,6 1,3 2 1 4 2 ENE 1029,5 7 0,0
20.10.2018 05:00:00 3,2 2,8 1,2 2 1 4 2 E 1029,1 5 0,0
20.10.2018 04:00:00 3,1 2,8 0,7 0 0 4 2 N 1028,8 2,9 0,0
20.10.2018 03:00:00 2,8 2,5 0,0 2 1 4 2 N 1028,9 6 0,0
20.10.2018 02:00:00 3,2 3,0 0,9 2 1 4 2 N 1028,6 8 0,0
20.10.2018 01:00:00 4,2 4,1 1,7 2 1 4 2 - 1027,9 3,8 0,0
20.10.2018 00:00:00 6,5 6,3 3,4 4 2 4 2 ENE 1027,6 9 0,0
19.10.2018 23:00:00 6,3 6,2 3,1 2 1 4 2 - 1027,6 9 0,0
19.10.2018 22:00:00 6,9 6,4 4,4 4 2 7 4 - 1027,5 10 0,0
19.10.2018 21:00:00 7,7 7,0 4,7 4 2 11 6 - 1026,7 10 0,0
19.10.2018 20:00:00 8,8 7,8 5,8 5 3 11 6 NNW 1026,2 10 0,0
19.10.2018 19:00:00 10,6 8,8 8,9 4 2 11 6 - 1025,5 10 0,0
19.10.2018 18:00:00 14,1 9,0 13,8 8 4 14 8 N 1025,0 10 0,0
19.10.2018 17:00:00 15,4 8,4 15,7 8 4 18 10 NNE 1024,7 10 0,0
19.10.2018 16:00:00 15,5 9,1 16,5 8 4 14 8 NE 1024,6 10 0,0
19.10.2018 15:00:00 15,0 9,4 15,4 8 4 18 10 NNE 1024,8 10 0,0
19.10.2018 14:00:00 14,9 9,3 16,6 8 4 14 8 ENE 1025,0 10 0,0
19.10.2018 13:00:00 13,9 9,5 15,3 5 3 14 8 NE 1025,3 10 0,0
19.10.2018 12:00:00 12,5 8,7 14,0 8 4 18 10 ENE 1025,6 10 0,0
19.10.2018 11:00:00 11,1 7,9 12,0 11 6 22 12 ENE 1025,4 10 0,0
19.10.2018 10:00:00 9,8 7,2 10,1 15 8 22 12 ENE 1025,1 10 0,0
19.10.2018 09:00:00 8,9 6,8 8,9 9 5 14 8 NE 1025,3 10 0,0
19.10.2018 08:00:00 9,1 6,8 9,0 13 7 18 10 NE 1025,0 10 0,0
19.10.2018 07:00:00 9,1 7,1 9,0 11 6 14 8 NE 1025,1 10 0,0
19.10.2018 06:00:00 9,3 7,3 9,1 13 7 22 12 ENE 1025,0 10 0,0
19.10.2018 05:00:00 9,5 7,3 9,3 15 8 22 12 ENE 1025,0 10 0,0
19.10.2018 04:00:00 9,5 7,3 9,2 13 7 18 10 NE 1025,0 10 0,0
19.10.2018 03:00:00 8,4 6,9 7,1 8 4 18 10 NE 1025,0 10 0,0
19.10.2018 02:00:00 10,1 7,4 9,2 11 6 18 10 ENE 1025,1 10 0,0
19.10.2018 01:00:00 10,3 7,7 9,3 9 5 14 8 ENE 1025,3 10 0,0
19.10.2018 00:00:00 12,3 8,6 11,9 13 7 22 12 NE 1025,3 10 0,0
18.10.2018 23:00:00 12,9 8,9 12,4 15 8 22 12 NE 1025,5 10 0,0
18.10.2018 22:00:00 12,8 8,7 12,6 11 6 18 10 NNE 1025,5 10 0,0
18.10.2018 21:00:00 12,7 8,3 12,5 13 7 22 12 NNE 1025,5 10 0,0
18.10.2018 20:00:00 13,0 8,1 12,9 15 8 22 12 NNE 1025,1 10 0,0
18.10.2018 19:00:00 13,8 8,4 13,6 11 6 25 14 NNE 1024,9 10 0,0
18.10.2018 18:00:00 14,5 8,6 14,4 13 7 25 14 NNE 1024,5 10 0,0
18.10.2018 17:00:00 15,4 9,1 15,4 15 8 29 16 NNE 1024,5 10 0,0
18.10.2018 16:00:00 15,9 9,2 16,1 15 8 25 14 NE 1024,7 10 0,0
18.10.2018 15:00:00 16,2 10,3 16,0 13 7 29 16 NE 1024,8 10 0,0
18.10.2018 14:00:00 15,4 11,1 15,1 15 8 32 18 NNE 1024,9 10 0,0
18.10.2018 13:00:00 16,1 10,7 15,7 21 11 29 16 NNE 1025,1 10 0,0
18.10.2018 12:00:00 15,6 11,7 14,9 16 9 29 16 NNE 1025,3 10 0,0
18.10.2018 11:00:00 14,2 11,7 14,4 16 9 29 16 NNE 1025,1 10 0,0
18.10.2018 10:00:00 13,5 12,3 13,3 13 7 14 8 NNE 1024,7 10 0,0
18.10.2018 09:00:00 12,5 12,1 12,3 8 4 11 6 NNE 1024,2 6 0,0
18.10.2018 08:00:00 11,9 11,6 11,5 5 3 11 6 N 1023,9 4,1 0,0
18.10.2018 07:00:00 11,4 11,1 10,8 5 3 11 6 NNE 1023,5 6 0,0
18.10.2018 06:00:00 10,3 10,3 9,6 9 5 11 6 N 1023,4 4,4 0,0
18.10.2018 05:00:00 7,9 7,9 5,3 4 2 7 4 E 1022,9 4,5 0,0
18.10.2018 04:00:00 8,3 8,3 6,1 2 1 7 4 - 1023,0 3,5 0,0
18.10.2018 03:00:00 10,0 9,7 7,5 4 2 7 4 - 1023,0 6 0,0
18.10.2018 02:00:00 9,8 9,4 8,2 4 2 4 2 - 1022,8 10 0,0
18.10.2018 01:00:00 10,7 10,3 9,3 5 3 7 4 N 1022,6 10 0,0
18.10.2018 00:00:00 9,0 8,7 7,3 2 1 4 2 - 1022,5 10 0,0
17.10.2018 23:00:00 9,3 9,2 6,5 0 0 4 2 N 1022,1 10 0,0
17.10.2018 22:00:00 9,8 9,8 7,9 2 1 7 4 ENE 1021,8 10 0,0
17.10.2018 21:00:00 11,3 10,8 8,1 4 2 7 4 - 1021,3 10 0,0
17.10.2018 20:00:00 12,0 10,9 10,2 4 2 11 6 - 1020,9 10 0,0
17.10.2018 19:00:00 14,3 11,2 12,9 5 3 14 8 N 1020,3 10 0,0
17.10.2018 18:00:00 16,3 11,4 15,9 11 6 22 12 NW 1019,9 10 0,0
17.10.2018 17:00:00 17,2 12,7 17,4 15 8 22 12 WNW 1019,8 10 0,0
17.10.2018 16:00:00 18,6 12,7 18,6 11 6 18 10 W 1019,4 10 0,0
17.10.2018 15:00:00 18,5 12,8 19,4 8 4 14 8 WNW 1019,3 10 0,0
17.10.2018 14:00:00 18,0 13,0 19,0 8 4 14 8 W 1019,4 10 0,0
17.10.2018 13:00:00 18,1 13,4 18,5 9 5 18 10 NW 1019,6 10 0,0
17.10.2018 12:00:00 18,0 13,5 18,9 4 2 11 6 - 1019,6 10 0,0
17.10.2018 11:00:00 16,0 14,6 16,4 8 4 11 6 WSW 1019,6 3,9 0,0
17.10.2018 10:00:00 13,9 13,9 14,0 5 3 7 4 WSW 1019,4 2,0 0,0
17.10.2018 09:00:00 12,4 12,4 12,0 4 2 7 4 - 1019,2 - 0,0
17.10.2018 08:00:00 11,5 11,5 9,4 4 2 7 4 SSW 1018,9 - 0,0
17.10.2018 07:00:00 11,0 11,0 9,4 8 4 7 4 WSW 1018,7 0,1 0,0
17.10.2018 06:00:00 10,0 9,9 7,9 4 2 7 4 SSW 1018,4 0,3 0,0
17.10.2018 05:00:00 9,7 9,6 7,2 2 1 4 2 SW 1018,0 1,8 0,0
17.10.2018 04:00:00 10,0 10,0 7,7 4 2 4 2 SW 1018,2 0,5 0,0
17.10.2018 03:00:00 12,0 11,9 9,4 4 2 11 6 SW 1018,2 2,4 0,0
17.10.2018 02:00:00 13,3 11,8 11,2 8 4 14 8 W 1018,2 10 0,0
17.10.2018 01:00:00 11,2 9,8 9,0 0 0 7 4 N 1018,0 10 0,0
17.10.2018 00:00:00 13,5 10,6 11,4 5 3 14 8 SW 1017,9 10 0,0
16.10.2018 23:00:00 12,4 11,1 8,4 5 3 11 6 ESE 1017,9 10 0,0
16.10.2018 22:00:00 11,9 10,8 8,6 0 0 7 4 N 1018,1 10 0,0
16.10.2018 21:00:00 12,2 11,1 9,3 4 2 7 4 SSE 1017,9 10 0,0
16.10.2018 20:00:00 13,6 11,9 10,2 2 1 4 2 E 1017,8 10 0,0
16.10.2018 19:00:00 16,1 13,2 13,9 2 1 4 2 - 1017,6 10 0,0
16.10.2018 18:00:00 21,9 14,8 22,0 2 1 14 8 - 1017,3 10 0,0
16.10.2018 17:00:00 23,9 10,1 23,7 8 4 14 8 E 1017,3 10 0,0

tt = Température de l'air
td = dewpoint
tt 5cm = Température de l'air 5cm
ff = Vitesse du vent
fx = gusts
dd = Direction du vent
ppp = reduced air pressure
vv = visibility
rr = Quantités de précipitations

stations d'obs. à proximité